Flag for U.S.A. Weather past 2 weeks in Myrtle Beach, South Carolina, U.S.A.

61 °F


Feels Like: 61 °F
Forecast: 58 / 77 °F
Wind: 6 mph from North

Location: Myrtle Beach Air Force Base

Current Time: Oct 6, 2015 at 11:08:59 PM

Latest Report: Oct 6, 2015 at 9:45 PM

Visibility: 10 mi

Pressure: 30.02 "Hg

Humidity: 77%

Dew point: 54 °F

Location of Myrtle BeachLocation

Historic Weather in Myrtle Beach — Graph


Myrtle Beach temperature yesterday

Maximum temperature yesterday: 70 °F (at 12:15 AM)
Minimum temperature yesterday: 64 °F (at 4:55 AM)
Average temperature yesterday: 67 °F

Past Weeks' High & Low Weather Summary

High86 °F (Sep 29, 1:50 PM)89% (Sep 25, 9:50 AM)30.10 "Hg (Sep 25, 9:50 AM)
Low61 °F (Oct 6, 2:35 AM)51% (Sep 22, 4:45 PM)29.61 "Hg (Oct 4, 4:35 AM)
Average73 °F78%29.91 "Hg
* Reported Sep 21 9:45 PM — Oct 6 9:45 PM, Myrtle Beach, Weather by CustomWeather, © 2015

Note: Actual official high and low records may vary slightly from our data, if they occured in-between our weather recording intervals... More about our weather records


Myrtle Beach weather history for previous 24 hours

Time TempWeatherWind HumidityBarometerVisibility
9:45 PM
Tue, Oct 6
61 °FClear.6 mph77%30.02 "Hg10 mi
8:47 PM61 °FClear.7 mph83%30.01 "Hg10 mi
7:45 PM63 °FSunny.8 mph77%30.00 "Hg10 mi
6:45 PM66 °FOvercast.12 mph73%29.99 "Hg10 mi
5:45 PM66 °FOvercast.14 mph68%29.97 "Hg10 mi
4:53 PM66 °FOvercast.14 mph68%29.97 "Hg10 mi
3:45 PM66 °FOvercast.14 mph68%29.97 "Hg10 mi
2:45 PM66 °FOvercast.14 mph68%29.98 "Hg10 mi
1:50 PM66 °FOvercast.16 mph68%29.99 "Hg10 mi
12:50 PM66 °FOvercast.14 mph68%29.99 "Hg10 mi
11:48 AM64 °FOvercast.14 mph73%29.99 "Hg10 mi
10:48 AM63 °FLow clouds.15 mph77%29.99 "Hg10 mi
9:45 AM63 °FLow clouds.12 mph73%29.98 "Hg10 mi
8:50 AM61 °FLow clouds.12 mph77%29.97 "Hg10 mi
7:52 AM61 °FLow clouds.13 mph77%29.97 "Hg10 mi
6:47 AM61 °FLow clouds.14 mph77%29.96 "Hg10 mi
5:55 AM61 °FLow clouds.12 mph77%29.95 "Hg10 mi
5:35 AM61 °FLow clouds.12 mph77%29.95 "Hg10 mi
5:15 AM61 °FLow clouds.12 mph77%29.95 "Hg10 mi
4:55 AM61 °FMostly cloudy.12 mph83%29.94 "Hg10 mi
4:35 AM61 °FLow clouds.12 mph77%29.94 "Hg9 mi
4:15 AM61 °FLow clouds.13 mph77%29.94 "Hg10 mi
3:55 AM61 °FLow clouds.14 mph77%29.94 "Hg10 mi
3:35 AM61 °FLow clouds.14 mph77%29.94 "Hg10 mi
3:15 AM61 °FLow clouds.15 mph77%29.94 "Hg10 mi
2:55 AM61 °FLow clouds.16 mph77%29.93 "Hg10 mi
2:35 AM61 °FLow clouds.14 mph77%29.94 "Hg10 mi
2:15 AM63 °FLow clouds.15 mph73%29.94 "Hg10 mi
1:55 AM63 °FOvercast.15 mph77%29.94 "Hg10 mi
1:35 AM63 °FOvercast.16 mph77%29.94 "Hg10 mi
1:15 AM63 °FOvercast.14 mph77%29.94 "Hg10 mi
12:55 AM63 °FOvercast.16 mph77%29.94 "Hg10 mi
12:35 AM63 °FOvercast.15 mph77%29.95 "Hg10 mi
11:55 PM
Mon, Oct 5
64 °FOvercast.18 mph73%29.96 "Hg10 mi
11:35 PM64 °FOvercast.15 mph73%29.95 "Hg10 mi
11:15 PM64 °FOvercast.16 mph73%29.95 "Hg10 mi
Weather by CustomWeather, © 2015

See weather overviewHow to use our weather pages